Location: Central Falls
(41.8900°N, 71.3929°W)
Time: 08:34:31
(UTC+00:00)

Altair - Pass Details

Date: 13 December 2023
Orbit: 1501 x 1682 km, 47.2° (Epoch: 29 February)

Event Time Altitude Azimuth Distance (km) Brightness Sun altitude
Rises 09:37:20 0° 213° (SSW) 4,903 9.9 -26.5°
Reaches altitude 10° 09:40:40 10° 208° (SSW) 3,903 9.4 -25.9°
Maximum altitude 09:50:02 47° 138° (SE) 2,049 8.4 -24.2°
Drops below altitude 10° 09:59:05 10° 69° (ENE) 3,789 10.3 -22.5°
Sets 10:02:16 0° 63° (ENE) 4,751 10.9 -21.9°
